When you browse on this site, cookies collect data to enhance your experience and personalize the content and advertising you see.
Visit our Privacy Policy to learn more. By continuing to use the site, you agree to this use of cookies and data.
  • In Deutschland
  • Länderverzeichnis
  • Für 7 Tage
  • Wassertemperatur
  • Wetterkarte
  • Widgets
  • user-avatar
    Anmelden

    Stündliche Wetter Majdan

    Heute, 16 September, Montag

    Zeit Temperatur Niederschläge Wind Luftdruck Luftfeuchtigkeit
    00:00 +17°C° 0 mm 5 m/S 751 mmHg 52%
    01:00 +17°C° 0 mm 5 m/S 751 mmHg 51%
    02:00 +16°C° 0 mm 5 m/S 751 mmHg 56%
    03:00 +16°C° 0 mm 5 m/S 751 mmHg 61%
    04:00 +15°C° 0 mm 5 m/S 751 mmHg 66%
    05:00 +15°C° 0 mm 5 m/S 751 mmHg 66%
    06:00 +14°C° 0 mm 6 m/S 751 mmHg 66%
    07:00 +13°C° 0 mm 6 m/S 751 mmHg 66%
    08:00 +14°C° 0 mm 6 m/S 752 mmHg 63%
    09:00 +14°C° 0 mm 6 m/S 752 mmHg 61%
    10:00 +14°C° 0 mm 7 m/S 752 mmHg 58%
    11:00 +15°C° 0 mm 6 m/S 752 mmHg 57%
    12:00 +15°C° 0 mm 6 m/S 752 mmHg 56%
    13:00 +15°C° 0 mm 6 m/S 752 mmHg 55%
    14:00 +15°C° 0 mm 6 m/S 751 mmHg 54%
    15:00 +15°C° 0 mm 6 m/S 751 mmHg 53%
    16:00 +16°C° 0 mm 5 m/S 751 mmHg 52%
    17:00 +15°C° 0 mm 5 m/S 751 mmHg 55%
    18:00 +14°C° 0 mm 4 m/S 751 mmHg 57%
    19:00 +13°C° 0 mm 4 m/S 751 mmHg 59%
    20:00 +12°C° 0 mm 4 m/S 750 mmHg 62%
    21:00 +11°C° 0 mm 3 m/S 750 mmHg 66%
    22:00 +10°C° 0 mm 3 m/S 750 mmHg 69%
    23:00 +11°C° 0 mm 4 m/S 750 mmHg 68%

    Morgen, 17 September, Dienstag

    Zeit Temperatur Niederschläge Wind Luftdruck Luftfeuchtigkeit
    00:00 +11°C° 0 mm 4 m/S 750 mmHg 67%
    01:00 +11°C° 0 mm 4 m/S 750 mmHg 67%
    02:00 +11°C° 0 mm 4 m/S 750 mmHg 68%
    03:00 +9°C° 0 mm 5 m/S 750 mmHg 70%
    04:00 +9°C° 0 mm 5 m/S 749 mmHg 72%
    05:00 +9°C° 0 mm 5 m/S 749 mmHg 72%
    06:00 +9°C° 0 mm 5 m/S 749 mmHg 72%
    07:00 +10°C° 0 mm 6 m/S 749 mmHg 72%
    08:00 +11°C° 0 mm 6 m/S 749 mmHg 66%
    09:00 +12°C° 0 mm 7 m/S 749 mmHg 60%
    10:00 +14°C° 0 mm 7 m/S 748 mmHg 54%
    11:00 +14°C° 0.2 mm 7 m/S 748 mmHg 54%
    12:00 +13°C° 0.2 mm 8 m/S 747 mmHg 54%
    13:00 +15°C° 0.2 mm 8 m/S 747 mmHg 54%
    14:00 +13°C° 0.5 mm 8 m/S 746 mmHg 58%
    15:00 +12°C° 0.5 mm 8 m/S 746 mmHg 63%
    16:00 +11°C° 0.5 mm 9 m/S 746 mmHg 67%
    17:00 +11°C° 0.5 mm 8 m/S 746 mmHg 70%
    18:00 +10°C° 0.5 mm 6 m/S 746 mmHg 73%
    19:00 +9°C° 0.5 mm 5 m/S 746 mmHg 75%
    20:00 +8°C° 0 mm 6 m/S 746 mmHg 76%
    21:00 +8°C° 0 mm 6 m/S 746 mmHg 77%
    22:00 +7°C° 0 mm 6 m/S 745 mmHg 78%
    23:00 +6°C° 0.1 mm 7 m/S 746 mmHg 78%

    übermorgen, 18 September, Mittwoch

    Zeit Temperatur Niederschläge Wind Luftdruck Luftfeuchtigkeit
    00:00 +5°C° 0.1 mm 7 m/S 746 mmHg 78%
    01:00 +5°C° 0.1 mm 7 m/S 746 mmHg 78%
    02:00 +5°C° 0 mm 8 m/S 746 mmHg 79%
    03:00 +5°C° 0 mm 8 m/S 747 mmHg 80%
    04:00 +6°C° 0 mm 9 m/S 747 mmHg 82%
    05:00 +6°C° 0.1 mm 9 m/S 748 mmHg 80%
    06:00 +6°C° 0.1 mm 9 m/S 748 mmHg 78%
    07:00 +6°C° 0.1 mm 9 m/S 749 mmHg 76%
    08:00 +8°C° 0 mm 9 m/S 750 mmHg 69%
    09:00 +10°C° 0 mm 9 m/S 750 mmHg 62%
    10:00 +12°C° 0 mm 9 m/S 751 mmHg 55%
    11:00 +12°C° 0 mm 9 m/S 751 mmHg 53%
    12:00 +12°C° 0 mm 8 m/S 751 mmHg 51%
    13:00 +13°C° 0 mm 8 m/S 751 mmHg 49%
    14:00 +13°C° 0.3 mm 8 m/S 751 mmHg 52%
    15:00 +14°C° 0.3 mm 7 m/S 752 mmHg 55%
    16:00 +12°C° 0.3 mm 7 m/S 752 mmHg 58%
    17:00 +11°C° 0.1 mm 6 m/S 752 mmHg 63%
    18:00 +10°C° 0.1 mm 5 m/S 753 mmHg 68%
    19:00 +10°C° 0.1 mm 4 m/S 753 mmHg 73%
    20:00 +8°C° 0 mm 4 m/S 753 mmHg 75%
    21:00 +8°C° 0 mm 4 m/S 753 mmHg 77%
    22:00 +9°C° 0 mm 3 m/S 754 mmHg 78%
    23:00 +8°C° 0 mm 3 m/S 754 mmHg 80%

    19 September, Donnerstag

    Zeit Temperatur Niederschläge Wind Luftdruck Luftfeuchtigkeit
    00:00 +7°C° 0 mm 4 m/S 754 mmHg 82%
    01:00 +7°C° 0 mm 4 m/S 754 mmHg 83%
    02:00 +6°C° 0 mm 4 m/S 754 mmHg 86%
    03:00 +6°C° 0 mm 4 m/S 754 mmHg 88%
    04:00 +5°C° 0 mm 4 m/S 754 mmHg 91%
    05:00 +6°C° 0 mm 4 m/S 754 mmHg 89%
    06:00 +6°C° 0 mm 4 m/S 754 mmHg 87%
    07:00 +6°C° 0 mm 4 m/S 755 mmHg 86%
    08:00 +8°C° 0 mm 4 m/S 755 mmHg 78%
    09:00 +11°C° 0 mm 4 m/S 755 mmHg 70%
    10:00 +12°C° 0 mm 4 m/S 756 mmHg 62%
    11:00 +13°C° 0.4 mm 4 m/S 756 mmHg 60%
    12:00 +13°C° 0.4 mm 5 m/S 756 mmHg 58%
    13:00 +14°C° 0.4 mm 5 m/S 756 mmHg 56%
    14:00 +13°C° 0.5 mm 5 m/S 756 mmHg 58%
    15:00 +13°C° 0.5 mm 5 m/S 756 mmHg 61%
    16:00 +12°C° 0.5 mm 5 m/S 756 mmHg 63%
    17:00 +10°C° 0.1 mm 5 m/S 757 mmHg 67%
    18:00 +9°C° 0.1 mm 5 m/S 757 mmHg 72%
    19:00 +8°C° 0.1 mm 4 m/S 758 mmHg 76%
    20:00 +7°C° 0 mm 4 m/S 758 mmHg 78%
    21:00 +6°C° 0 mm 4 m/S 759 mmHg 80%
    22:00 +6°C° 0 mm 4 m/S 759 mmHg 83%
    23:00 +5°C° 0 mm 3 m/S 760 mmHg 84%

    20 September, Freitag

    Zeit Temperatur Niederschläge Wind Luftdruck Luftfeuchtigkeit
    00:00 +5°C° 0 mm 3 m/S 760 mmHg 84%
    01:00 +4°C° 0 mm 3 m/S 760 mmHg 85%
    02:00 +4°C° 0 mm 3 m/S 760 mmHg 84%
    03:00 +4°C° 0 mm 3 m/S 760 mmHg 83%
    04:00 +4°C° 0 mm 4 m/S 760 mmHg 82%
    05:00 +5°C° 0 mm 4 m/S 760 mmHg 79%
    06:00 +5°C° 0 mm 4 m/S 760 mmHg 77%
    07:00 +6°C° 0 mm 4 m/S 760 mmHg 74%
    08:00 +8°C° 0 mm 4 m/S 761 mmHg 68%
    09:00 +10°C° 0 mm 4 m/S 761 mmHg 61%
    10:00 +12°C° 0 mm 5 m/S 761 mmHg 55%
    11:00 +12°C° 0.1 mm 4 m/S 761 mmHg 52%
    12:00 +13°C° 0.1 mm 4 m/S 761 mmHg 49%
    13:00 +14°C° 0.1 mm 4 m/S 761 mmHg 46%
    14:00 +13°C° 0 mm 4 m/S 761 mmHg 47%
    15:00 +13°C° 0 mm 4 m/S 761 mmHg 49%
    16:00 +13°C° 0 mm 4 m/S 761 mmHg 50%
    17:00 +12°C° 0 mm 3 m/S 762 mmHg 56%
    18:00 +10°C° 0 mm 2 m/S 762 mmHg 62%
    19:00 +9°C° 0 mm 2 m/S 762 mmHg 68%
    20:00 +9°C° 0 mm 1 m/S 762 mmHg 70%
    21:00 +9°C° 0 mm 1 m/S 762 mmHg 72%
    22:00 +7°C° 0 mm 0 m/S 763 mmHg 74%
    23:00 +8°C° 0 mm 1 m/S 763 mmHg 74%

    21 September, Samstag

    Zeit Temperatur Niederschläge Wind Luftdruck Luftfeuchtigkeit
    00:00 +8°C° 0 mm 1 m/S 763 mmHg 74%
    01:00 +7°C° 0 mm 1 m/S 763 mmHg 75%
    02:00 +7°C° 0 mm 1 m/S 763 mmHg 75%
    03:00 +7°C° 0 mm 1 m/S 763 mmHg 76%
    04:00 +6°C° 0 mm 2 m/S 763 mmHg 76%
    05:00 +7°C° 0 mm 2 m/S 763 mmHg 73%
    06:00 +8°C° 0 mm 2 m/S 763 mmHg 70%
    07:00 +9°C° 0 mm 2 m/S 763 mmHg 67%
    08:00 +11°C° 0 mm 3 m/S 763 mmHg 61%
    09:00 +13°C° 0 mm 3 m/S 763 mmHg 55%
    10:00 +16°C° 0 mm 3 m/S 763 mmHg 49%
    11:00 +16°C° 0 mm 3 m/S 763 mmHg 47%
    12:00 +17°C° 0 mm 4 m/S 762 mmHg 44%
    13:00 +18°C° 0 mm 4 m/S 762 mmHg 42%
    14:00 +18°C° 0 mm 3 m/S 762 mmHg 44%
    15:00 +17°C° 0 mm 3 m/S 762 mmHg 46%
    16:00 +17°C° 0 mm 3 m/S 762 mmHg 48%
    17:00 +16°C° 0 mm 2 m/S 762 mmHg 51%
    18:00 +14°C° 0 mm 2 m/S 762 mmHg 55%
    19:00 +13°C° 0 mm 1 m/S 762 mmHg 58%
    20:00 +12°C° 0 mm 2 m/S 762 mmHg 59%
    21:00 +12°C° 0 mm 2 m/S 762 mmHg 61%
    22:00 +10°C° 0 mm 2 m/S 762 mmHg 62%
    23:00 +10°C° 0 mm 2 m/S 762 mmHg 63%
    Mehr zeigen